#Datum;Uhrzeit;WR;Pac;DaySum;Status;WR;Pac;DaySum;Status;Pdc1;Udc;Temp;WR;Pac;DaySum;Status;Pdc1;Udc;Temp;WR;Pac;DaySum;Status;Pdc1;Udc;Temp;WR;Pac;DaySum;Status;Pdc1;Pdc2;Udc1;Udc2;Temp;WR;Pac;DaySum;Status;Pdc1;Pdc2;Udc1;Udc2;Temp;WR;Pac;DaySum;Status;Pdc1;Udc;Temp;WR;Pac;DaySum;Status;Pdc1;Udc;Temp;WR;Pac;DaySum;Status;Pdc1;Udc;Temp
08.03.20;23:55:00;1;246;16035;0;2;0;22375;0;0;0;0;3;0;14290;0;0;0;0;4;0;21768;0;0;0;0;5;0;52616;0;0;0;0;0;0;6;0;40252;0;0;0;0;0;0;7;0;32663;0;0;0;0;8;0;31968;0;0;0;0;9;0;17474;0;0;0;0
08.03.20;23:50:00;1;248;16015;0;2;0;22375;0;0;0;0;3;0;14290;0;0;0;0;4;0;21768;0;0;0;0;5;0;52616;0;0;0;0;0;0;6;0;40252;0;0;0;0;0;0;7;0;32663;0;0;0;0;8;0;31968;0;0;0;0;9;0;17474;0;0;0;0
08.03.20;23:45:00;1;306;15994;0;2;0;22375;0;0;0;0;3;0;14290;0;0;0;0;4;0;21768;0;0;0;0;5;0;52616;0;0;0;0;0;0;6;0;40252;0;0;0;0;0;0;7;0;32663;0;0;0;0;8;0;31968;0;0;0;0;9;0;17474;0;0;0;0
08.03.20;23:40:00;1;309;15968;0;2;0;22375;0;0;0;0;3;0;14290;0;0;0;0;4;0;21768;0;0;0;0;5;0;52616;0;0;0;0;0;0;6;0;40252;0;0;0;0;0;0;7;0;32663;0;0;0;0;8;0;31968;0;0;0;0;9;0;17474;0;0;0;0
08.03.20;23:35:00;1;290;15942;0;2;0;22375;0;0;0;0;3;0;14290;0;0;0;0;4;0;21768;0;0;0;0;5;0;52616;0;0;0;0;0;0;6;0;40252;0;0;0;0;0;0;7;0;32663;0;0;0;0;8;0;31968;0;0;0;0;9;0;17474;0;0;0;0
08.03.20;23:30:00;1;256;15917;0;2;0;22375;0;0;0;0;3;0;14290;0;0;0;0;4;0;21768;0;0;0;0;5;0;52616;0;0;0;0;0;0;6;0;40252;0;0;0;0;0;0;7;0;32663;0;0;0;0;8;0;31968;0;0;0;0;9;0;17474;0;0;0;0
08.03.20;23:25:00;1;244;15896;0;2;0;22375;0;0;0;0;3;0;14290;0;0;0;0;4;0;21768;0;0;0;0;5;0;52616;0;0;0;0;0;0;6;0;40252;0;0;0;0;0;0;7;0;32663;0;0;0;0;8;0;31968;0;0;0;0;9;0;17474;0;0;0;0
08.03.20;23:20:00;1;244;15876;0;2;0;22375;0;0;0;0;3;0;14290;0;0;0;0;4;0;21768;0;0;0;0;5;0;52616;0;0;0;0;0;0;6;0;40252;0;0;0;0;0;0;7;0;32663;0;0;0;0;8;0;31968;0;0;0;0;9;0;17474;0;0;0;0
08.03.20;23:15:00;1;255;15855;0;2;0;22375;0;0;0;0;3;0;14290;0;0;0;0;4;0;21768;0;0;0;0;5;0;52616;0;0;0;0;0;0;6;0;40252;0;0;0;0;0;0;7;0;32663;0;0;0;0;8;0;31968;0;0;0;0;9;0;17474;0;0;0;0
08.03.20;23:10:00;1;307;15834;0;2;0;22375;0;0;0;0;3;0;14290;0;0;0;0;4;0;21768;0;0;0;0;5;0;52616;0;0;0;0;0;0;6;0;40252;0;0;0;0;0;0;7;0;32663;0;0;0;0;8;0;31968;0;0;0;0;9;0;17474;0;0;0;0
08.03.20;23:07:00;1;307;15823;0;2;0;22375;0;0;0;0;3;0;14290;0;0;0;0;4;0;21768;0;0;0;0;5;0;52616;0;0;0;0;0;0;6;0;40252;0;0;0;0;0;0;7;0;32663;0;0;0;0;8;0;31968;0;0;0;0;9;0;17474;0;0;0;0
08.03.20;23:00:00;1;289;15785;0;2;0;22375;0;0;0;0;3;0;14290;0;0;0;0;4;0;21768;0;0;0;0;5;0;52616;0;0;0;0;0;0;6;0;40252;0;0;0;0;0;0;7;0;32663;0;0;0;0;8;0;31968;0;0;0;0;9;0;17474;0;0;0;0
08.03.20;22:55:00;1;316;15761;0;2;0;22375;0;0;0;0;3;0;14290;0;0;0;0;4;0;21768;0;0;0;0;5;0;52616;2;0;0;0;0;0;6;0;40252;2;0;0;0;0;0;7;0;32663;0;0;0;0;8;0;31968;0;0;0;0;9;0;17474;0;0;0;0
08.03.20;22:50:00;1;295;15734;0;2;0;22375;0;0;0;0;3;0;14290;0;0;0;0;4;0;21768;0;0;0;0;5;0;52616;2;0;0;0;0;0;6;0;40252;2;0;0;0;0;0;7;0;32663;0;0;0;0;8;0;31968;0;0;0;0;9;0;17474;0;0;0;0
08.03.20;22:45:00;1;276;15710;0;2;0;22375;0;0;0;0;3;0;14290;0;0;0;0;4;0;21768;0;0;0;0;5;0;52616;2;0;0;0;0;0;6;0;40252;2;0;0;0;0;0;7;0;32663;0;0;0;0;8;0;31968;0;0;0;0;9;0;17474;0;0;0;0
08.03.20;22:40:00;1;305;15687;0;2;0;22375;0;0;0;0;3;0;14290;0;0;0;0;4;0;21768;0;0;0;0;5;0;52616;2;0;0;0;0;0;6;0;40252;2;0;0;0;0;0;7;0;32663;0;0;0;0;8;0;31968;0;0;0;0;9;0;17474;0;0;0;0
08.03.20;22:35:00;1;231;15661;0;2;0;22375;0;0;0;0;3;0;14290;0;0;0;0;4;0;21768;0;0;0;0;5;0;52616;2;0;0;0;0;0;6;0;40252;2;0;0;0;0;0;7;0;32663;0;0;0;0;8;0;31968;0;0;0;0;9;0;17474;0;0;0;0
08.03.20;22:30:00;1;248;15642;0;2;0;22375;0;0;0;0;3;0;14290;0;0;0;0;4;0;21768;0;0;0;0;5;0;52616;2;0;0;0;0;0;6;0;40252;2;0;0;0;0;0;7;0;32663;0;0;0;0;8;0;31968;0;0;0;0;9;0;17474;0;0;0;0
08.03.20;22:25:00;1;290;15621;0;2;0;22375;0;0;0;0;3;0;14290;0;0;0;0;4;0;21768;0;0;0;0;5;0;52616;2;0;0;0;0;0;6;0;40252;2;0;0;0;0;0;7;0;32663;0;0;0;0;8;0;31968;0;0;0;0;9;0;17474;0;0;0;0
08.03.20;22:20:00;1;324;15597;0;2;0;22375;0;0;0;0;3;0;14290;0;0;0;0;4;0;21768;0;0;0;0;5;0;52616;2;0;0;0;0;0;6;0;40252;2;0;0;0;0;0;7;0;32663;0;0;0;0;8;0;31968;0;0;0;0;9;0;17474;0;0;0;0
08.03.20;22:15:00;1;419;15570;0;2;0;22375;0;0;0;0;3;0;14290;0;0;0;0;4;0;21768;0;0;0;0;5;0;52616;2;0;0;0;0;0;6;0;40252;2;0;0;0;0;0;7;0;32663;0;0;0;0;8;0;31968;0;0;0;0;9;0;17474;0;0;0;0
08.03.20;22:10:00;1;517;15533;0;2;0;22375;0;0;0;0;3;0;14290;0;0;0;0;4;0;21768;0;0;0;0;5;0;52616;2;0;0;0;0;0;6;0;40252;2;0;0;0;0;0;7;0;32663;0;0;0;0;8;0;31968;0;0;0;0;9;0;17474;0;0;0;0
08.03.20;22:05:00;1;497;15490;0;2;0;22375;0;0;0;0;3;0;14290;0;0;0;0;4;0;21768;0;0;0;0;5;0;52616;2;0;0;0;0;0;6;0;40252;2;0;0;0;0;0;7;0;32663;0;0;0;0;8;0;31968;0;0;0;0;9;0;17474;0;0;0;0
08.03.20;22:00:00;1;488;15448;0;2;0;22375;0;0;0;0;3;0;14290;0;0;0;0;4;0;21768;0;0;0;0;5;0;52616;2;0;0;0;0;0;6;0;40252;2;0;0;0;0;0;7;0;32663;0;0;0;0;8;0;31968;0;0;0;0;9;0;17474;0;0;0;0
08.03.20;21:55:00;1;418;15408;0;2;0;22375;0;0;0;0;3;0;14290;0;0;0;0;4;0;21768;0;0;0;0;5;0;52616;2;0;0;0;0;0;6;0;40252;2;0;0;0;0;0;7;0;32663;0;0;0;0;8;0;31968;0;0;0;0;9;0;17474;0;0;0;0
08.03.20;21:50:00;1;346;15373;0;2;0;22375;0;0;0;0;3;0;14290;0;0;0;0;4;0;21768;0;0;0;0;5;0;52616;2;0;0;0;0;0;6;0;40252;2;0;0;0;0;0;7;0;32663;0;0;0;0;8;0;31968;0;0;0;0;9;0;17474;0;0;0;0
08.03.20;21:45:00;1;368;15344;0;2;0;22375;0;0;0;0;3;0;14290;0;0;0;0;4;0;21768;0;0;0;0;5;0;52616;2;0;0;0;0;0;6;0;40252;2;0;0;0;0;0;7;0;32663;0;0;0;0;8;0;31968;0;0;0;0;9;0;17474;0;0;0;0
08.03.20;21:40:00;1;376;15314;0;2;0;22375;0;0;0;0;3;0;14290;0;0;0;0;4;0;21768;0;0;0;0;5;0;52616;2;0;0;0;0;0;6;0;40252;2;0;0;0;0;0;7;0;32663;0;0;0;0;8;0;31968;0;0;0;0;9;0;17474;0;0;0;0
08.03.20;21:35:00;1;407;15282;0;2;0;22375;0;0;0;0;3;0;14290;0;0;0;0;4;0;21768;0;0;0;0;5;0;52616;2;0;0;0;0;0;6;0;40252;2;0;0;0;0;0;7;0;32663;0;0;0;0;8;0;31968;0;0;0;0;9;0;17474;0;0;0;0
08.03.20;21:30:00;1;358;15248;0;2;0;22375;0;0;0;0;3;0;14290;0;0;0;0;4;0;21768;0;0;0;0;5;0;52616;2;0;0;0;0;0;6;0;40252;2;0;0;0;0;0;7;0;32663;0;0;0;0;8;0;31968;0;0;0;0;9;0;17474;0;0;0;0
08.03.20;21:25:00;1;388;15218;0;2;0;22375;0;0;0;0;3;0;14290;0;0;0;0;4;0;21768;0;0;0;0;5;0;52616;2;0;0;0;0;0;6;0;40252;2;0;0;0;0;0;7;0;32663;0;0;0;0;8;0;31968;0;0;0;0;9;0;17474;0;0;0;0
08.03.20;21:20:00;1;418;15184;0;2;0;22375;0;0;0;0;3;0;14290;0;0;0;0;4;0;21768;0;0;0;0;5;0;52616;2;0;0;0;0;0;6;0;40252;2;0;0;0;0;0;7;0;32663;0;0;0;0;8;0;31968;0;0;0;0;9;0;17474;0;0;0;0
08.03.20;21:15:00;1;428;15150;0;2;0;22375;0;0;0;0;3;0;14290;0;0;0;0;4;0;21768;0;0;0;0;5;0;52616;2;0;0;0;0;0;6;0;40252;2;0;0;0;0;0;7;0;32663;0;0;0;0;8;0;31968;0;0;0;0;9;0;17474;0;0;0;0
08.03.20;21:10:00;1;440;15114;0;2;0;22375;0;0;0;0;3;0;14290;0;0;0;0;4;0;21768;0;0;0;0;5;0;52616;2;0;0;0;0;0;6;0;40252;2;0;0;0;0;0;7;0;32663;0;0;0;0;8;0;31968;0;0;0;0;9;0;17474;0;0;0;0
08.03.20;21:05:00;1;473;15081;0;2;0;22375;0;0;0;0;3;0;14290;0;0;0;0;4;0;21768;0;0;0;0;5;0;52616;2;0;0;0;0;0;6;0;40252;2;0;0;0;0;0;7;0;32663;0;0;0;0;8;0;31968;0;0;0;0;9;0;17474;0;0;0;0
08.03.20;21:00:00;1;374;15044;0;2;0;22375;0;0;0;0;3;0;14290;0;0;0;0;4;0;21768;0;0;0;0;5;0;52616;2;0;0;0;0;0;6;0;40252;2;0;0;0;0;0;7;0;32663;0;0;0;0;8;0;31968;0;0;0;0;9;0;17474;0;0;0;0
08.03.20;20:55:00;1;398;15013;0;2;0;22375;0;0;0;0;3;0;14290;0;0;0;0;4;0;21768;0;0;0;0;5;0;52616;2;0;0;0;0;0;6;0;40252;2;0;0;0;0;0;7;0;32663;0;0;0;0;8;0;31968;0;0;0;0;9;0;17474;0;0;0;0
08.03.20;20:50:00;1;388;14980;0;2;0;22375;0;0;0;0;3;0;14290;0;0;0;0;4;0;21768;0;0;0;0;5;0;52616;2;0;0;0;0;0;6;0;40252;2;0;0;0;0;0;7;0;32663;0;0;0;0;8;0;31968;0;0;0;0;9;0;17474;0;0;0;0
08.03.20;20:45:00;1;364;14948;0;2;0;22375;0;0;0;0;3;0;14290;0;0;0;0;4;0;21768;0;0;0;0;5;0;52616;2;0;0;0;0;0;6;0;40252;2;0;0;0;0;0;7;0;32663;0;0;0;0;8;0;31968;0;0;0;0;9;0;17474;0;0;0;0
08.03.20;20:40:00;1;269;14920;0;2;0;22375;0;0;0;0;3;0;14290;0;0;0;0;4;0;21768;0;0;0;0;5;0;52616;2;0;0;0;0;0;6;0;40252;2;0;0;0;0;0;7;0;32663;0;0;0;0;8;0;31968;0;0;0;0;9;0;17474;0;0;0;0
08.03.20;20:35:00;1;367;14897;0;2;0;22375;0;0;0;0;3;0;14290;0;0;0;0;4;0;21768;0;0;0;0;5;0;52616;2;0;0;0;0;0;6;0;40252;2;0;0;0;0;0;7;0;32663;0;0;0;0;8;0;31968;0;0;0;0;9;0;17474;0;0;0;0
08.03.20;20:30:00;1;342;14865;0;2;0;22375;0;0;0;0;3;0;14290;0;0;0;0;4;0;21768;0;0;0;0;5;0;52616;2;0;0;0;0;0;6;0;40252;2;0;0;0;0;0;7;0;32663;0;0;0;0;8;0;31968;0;0;0;0;9;0;17474;0;0;0;0
08.03.20;20:25:00;1;328;14836;0;2;0;22375;0;0;0;0;3;0;14290;0;0;0;0;4;0;21768;0;0;0;0;5;0;52616;2;0;0;0;0;0;6;0;40252;2;0;0;0;0;0;7;0;32663;0;0;0;0;8;0;31968;0;0;0;0;9;0;17474;0;0;0;0
08.03.20;20:20:00;1;290;14808;0;2;0;22375;0;0;0;0;3;0;14290;0;0;0;0;4;0;21768;0;0;0;0;5;0;52616;2;0;0;0;0;0;6;0;40252;2;0;0;0;0;0;7;0;32663;0;0;0;0;8;0;31968;0;0;0;0;9;0;17474;0;0;0;0
08.03.20;20:15:00;1;290;14784;0;2;0;22375;0;0;0;0;3;0;14290;0;0;0;0;4;0;21768;0;0;0;0;5;0;52616;2;0;0;0;0;0;6;0;40252;2;0;0;0;0;0;7;0;32663;0;0;0;0;8;0;31968;0;0;0;0;9;0;17474;0;0;0;0
08.03.20;20:10:00;1;295;14760;0;2;0;22375;0;0;0;0;3;0;14290;0;0;0;0;4;0;21768;0;0;0;0;5;0;52616;2;0;0;0;0;0;6;0;40252;2;0;0;0;0;0;7;0;32663;0;0;0;0;8;0;31968;0;0;0;0;9;0;17474;0;0;0;0
08.03.20;20:05:00;1;317;14735;0;2;0;22375;0;0;0;0;3;0;14290;0;0;0;0;4;0;21768;0;0;0;0;5;0;52616;2;0;0;0;0;0;6;0;40252;2;0;0;0;0;0;7;0;32663;0;0;0;0;8;0;31968;0;0;0;0;9;0;17474;0;0;0;0
08.03.20;20:00:00;1;279;14713;0;2;0;22375;0;0;0;0;3;0;14290;0;0;0;0;4;0;21768;0;0;0;0;5;0;52616;2;0;0;0;0;0;6;0;40252;2;0;0;0;0;0;7;0;32663;0;0;0;0;8;0;31968;0;0;0;0;9;0;17474;0;0;0;0
08.03.20;19:55:00;1;223;14692;0;2;0;22375;0;0;0;0;3;0;14290;0;0;0;0;4;0;21768;0;0;0;0;5;0;52616;2;0;0;0;0;0;6;0;40252;2;0;0;0;0;0;7;0;32663;0;0;0;0;8;0;31968;0;0;0;0;9;0;17474;0;0;0;0
08.03.20;19:50:00;1;245;14674;0;2;0;22375;0;0;0;0;3;0;14290;0;0;0;0;4;0;21768;0;0;0;0;5;0;52616;2;0;0;0;0;0;6;0;40252;2;0;0;0;0;0;7;0;32663;0;0;0;0;8;0;31968;0;0;0;0;9;0;17474;0;0;0;0
08.03.20;19:45:00;1;266;14653;0;2;0;22375;0;0;0;0;3;0;14290;0;0;0;0;4;0;21768;0;0;0;0;5;0;52616;2;0;0;0;0;0;6;0;40252;2;0;0;0;0;0;7;0;32663;0;0;0;0;8;0;31968;0;0;0;0;9;0;17474;0;0;0;0
08.03.20;19:40:00;1;267;14631;0;2;0;22375;0;0;0;0;3;0;14290;0;0;0;0;4;0;21768;0;0;0;0;5;0;52616;2;0;0;0;0;0;6;0;40252;2;0;0;0;0;0;7;0;32663;0;0;0;0;8;0;31968;0;0;0;0;9;0;17474;0;0;0;0
08.03.20;19:35:00;1;248;14608;0;2;0;22375;0;0;0;0;3;0;14290;0;0;0;0;4;0;21768;0;0;0;0;5;0;52616;2;0;0;0;0;0;6;0;40252;2;0;0;0;0;0;7;0;32663;0;0;0;0;8;0;31968;0;0;0;0;9;0;17474;0;0;0;0
08.03.20;19:30:00;1;280;14587;0;2;0;22375;0;0;0;0;3;0;14290;0;0;0;0;4;0;21768;0;0;0;0;5;0;52616;2;0;0;0;0;0;6;0;40252;2;0;0;0;0;0;7;0;32663;0;0;0;0;8;0;31968;0;0;0;0;9;0;17474;0;0;0;0
08.03.20;19:25:00;1;224;14564;0;2;0;22375;0;0;0;0;3;0;14290;0;0;0;0;4;0;21768;0;0;0;0;5;0;52616;2;0;0;0;0;0;6;0;40252;2;0;0;0;0;0;7;0;32663;0;0;0;0;8;0;31968;0;0;0;0;9;0;17474;0;0;0;0
08.03.20;19:20:00;1;223;14546;0;2;0;22375;0;0;0;0;3;0;14290;0;0;0;0;4;0;21768;0;0;0;0;5;0;52616;2;0;0;0;0;0;6;0;40252;2;0;0;0;0;0;7;0;32663;0;0;0;0;8;0;31968;0;0;0;0;9;0;17474;0;0;0;0
08.03.20;19:15:00;1;224;14527;0;2;0;22375;0;0;0;0;3;0;14290;0;0;0;0;4;0;21768;0;0;0;0;5;0;52616;2;0;0;0;0;0;6;0;40252;2;0;0;0;0;0;7;0;32663;0;0;0;0;8;0;31968;0;0;0;0;9;0;17474;0;0;0;0
08.03.20;19:10:00;1;223;14508;0;2;0;22375;0;0;0;0;3;0;14290;0;0;0;0;4;0;21768;0;0;0;0;5;0;52616;2;0;0;0;0;0;6;0;40252;2;0;0;0;0;0;7;0;32663;0;0;0;0;8;0;31968;0;0;0;0;9;0;17474;0;0;0;0
08.03.20;19:05:00;1;223;14490;0;2;0;22375;0;0;0;0;3;0;14290;0;0;0;0;4;0;21768;0;0;0;0;5;0;52616;2;0;0;0;0;0;6;0;40252;2;0;0;0;0;0;7;0;32663;0;0;0;0;8;0;31968;0;0;0;0;9;0;17474;0;0;0;0
08.03.20;19:00:00;1;319;14470;0;2;0;22375;0;0;0;0;3;0;14290;0;0;0;0;4;0;21768;0;0;0;0;5;0;52616;2;0;0;0;0;0;6;0;40252;2;0;0;0;0;0;7;0;32663;0;0;0;0;8;0;31968;0;0;0;0;9;0;17474;0;0;0;0
08.03.20;18:55:00;1;336;14444;0;2;0;22375;0;0;0;0;3;0;14290;0;0;0;0;4;0;21768;0;0;0;0;5;0;52616;2;0;0;0;0;0;6;0;40252;2;0;0;0;0;0;7;0;32663;0;0;0;0;8;0;31968;0;0;0;0;9;0;17474;0;0;0;0
08.03.20;18:50:00;1;311;14421;0;2;0;22375;0;0;0;0;3;0;14290;0;0;0;0;4;0;21768;0;0;0;0;5;0;52616;2;0;0;0;0;0;6;0;40252;2;0;0;0;0;0;7;0;32663;0;0;0;0;8;0;31968;0;0;0;0;9;0;17474;0;0;0;0
08.03.20;18:45:00;1;240;14394;0;2;0;22375;0;0;0;0;3;0;14290;0;0;0;0;4;0;21768;0;0;0;0;5;0;52616;2;0;0;0;0;0;6;0;40252;2;0;0;0;0;0;7;0;32663;0;0;0;0;8;0;31968;0;0;0;0;9;0;17474;0;0;0;0
08.03.20;18:40:00;1;223;14375;0;2;0;22375;0;0;0;0;3;0;14290;0;0;0;0;4;0;21768;0;0;0;0;5;0;52616;2;0;0;0;0;0;6;0;40252;2;0;0;0;0;0;7;0;32663;0;0;0;0;8;0;31968;0;0;0;0;9;0;17474;0;0;0;0
08.03.20;18:35:00;1;232;14357;0;2;0;22375;0;0;0;0;3;0;14290;0;0;0;0;4;0;21768;0;0;0;0;5;0;52616;2;0;0;0;0;0;6;0;40252;2;0;0;0;0;0;7;0;32663;0;0;0;0;8;0;31968;0;0;0;0;9;0;17474;0;0;0;0
08.03.20;18:30:00;1;321;14337;0;2;0;22375;0;0;0;0;3;0;14290;0;0;0;0;4;0;21768;0;0;0;0;5;0;52616;2;0;0;0;0;0;6;0;40252;2;0;0;0;0;0;7;0;32663;0;0;0;0;8;0;31968;0;0;0;0;9;0;17474;0;0;0;0
08.03.20;18:25:00;1;322;14310;0;2;0;22375;0;0;0;0;3;0;14290;0;0;131;9;4;0;21768;0;0;0;0;5;0;52616;2;0;0;0;0;0;6;0;40252;2;0;0;0;0;0;7;0;32663;0;0;0;0;8;0;31968;0;0;0;0;9;0;17474;0;0;0;0
08.03.20;18:20:00;1;288;14284;0;2;0;22375;6;0;288;16;3;0;14290;6;0;325;18;4;0;21768;0;0;26;8;5;0;52616;2;0;0;0;0;0;6;0;40252;2;0;0;0;0;0;7;0;32663;0;0;0;0;8;0;31968;0;0;0;0;9;0;17474;0;0;0;0
08.03.20;18:15:00;1;301;14260;0;2;0;22375;6;0;337;17;3;0;14290;6;0;413;18;4;0;21768;2;0;93;20;5;0;52616;2;0;0;136;136;11;6;0;40252;2;3;0;71;115;10;7;0;32663;0;0;48;4;8;0;31968;0;0;0;0;9;0;17474;0;0;50;2
08.03.20;18:10:00;1;332;14233;0;2;0;22375;6;0;374;17;3;0;14290;6;0;461;19;4;0;21768;1;0;154;21;5;0;52616;26;0;0;393;424;28;6;0;40252;23;8;1;180;508;26;7;0;32663;6;0;315;21;8;0;31968;6;0;314;20;9;0;17474;6;0;321;15
08.03.20;18:05:00;1;331;14206;0;2;0;22375;6;0;395;18;3;1;14290;3;4;456;19;4;0;21768;1;0;200;21;5;11;52616;1;0;0;398;615;28;6;0;40252;23;7;2;181;553;26;7;0;32663;6;0;396;21;8;0;31968;6;0;395;20;9;0;17474;6;0;290;11
08.03.20;18:00:00;1;313;14178;0;2;0;22375;6;0;409;19;3;0;14290;6;6;493;19;4;0;21768;3;0;202;22;5;29;52615;1;0;2;410;651;28;6;8;40252;23;1;7;489;553;27;7;0;32663;4;2;348;17;8;0;31968;6;2;434;21;9;0;17474;6;2;268;9
08.03.20;17:55:00;1;288;14151;0;2;13;22375;6;28;396;19;3;3;14290;6;9;509;20;4;0;21768;3;0;200;23;5;88;52612;4;10;12;385;614;29;6;57;40251;4;22;36;486;463;28;7;4;32663;3;13;432;22;8;0;31968;6;5;458;21;9;1;17473;6;3;499;16
08.03.20;17:50:00;1;221;14129;0;2;56;22374;4;92;363;20;3;9;14289;6;23;487;20;4;19;21768;3;19;199;23;5;124;52604;4;30;27;385;614;30;6;79;40246;4;32;47;486;462;28;7;6;32663;6;12;369;18;8;8;31968;4;19;443;22;9;1;17473;6;6;406;12
08.03.20;17:45:00;1;222;14111;0;2;167;22369;4;207;356;21;3;84;14289;6;113;444;21;4;91;21767;3;94;208;24;5;169;52594;4;50;49;385;614;30;6;109;40239;4;44;65;486;463;28;7;105;32662;4;142;451;23;8;42;31967;4;74;327;17;9;3;17473;6;8;537;16
08.03.20;17:40:00;1;220;14092;0;2;524;22355;4;574;352;22;3;300;14281;4;345;420;22;4;414;21759;5;431;236;25;5;225;52579;4;86;76;385;614;30;6;150;40230;4;78;94;486;463;28;7;486;32653;4;531;479;24;8;112;31963;4;146;369;22;9;6;17473;6;10;559;17
08.03.20;17:35:00;1;219;14074;0;2;659;22311;4;715;355;23;3;395;14256;4;445;429;22;4;529;21724;5;551;241;25;5;272;52560;4;105;102;385;614;30;6;190;40217;4;70;83;486;463;28;7;692;32612;4;744;472;24;8;195;31954;4;221;312;18;9;20;17472;3;32;534;17
08.03.20;17:30:00;1;254;14055;0;2;688;22257;4;742;355;24;3;399;14224;4;446;423;22;4;559;21681;5;582;238;26;5;317;52537;4;132;121;385;614;30;6;226;40201;4;100;117;486;463;29;7;727;32555;4;784;472;24;8;228;31933;4;258;306;15;9;0;17470;6;0;394;12
08.03.20;17:25:00;1;393;14034;0;2;923;22199;4;989;363;24;3;528;14190;4;580;424;23;4;752;21634;5;783;243;26;5;390;52511;4;171;155;392;614;30;6;321;40181;4;153;181;511;538;29;7;777;32494;4;827;384;20;8;533;31906;4;585;477;24;9;43;17470;4;64;291;11
08.03.20;17:20:00;1;409;13999;0;2;1129;22121;4;1200;362;25;3;660;14146;4;716;428;23;4;924;21571;5;963;244;27;5;506;52477;4;248;196;397;565;31;6;450;40153;4;228;254;595;568;29;7;1250;32413;4;1328;483;25;8;717;31861;4;781;480;24;9;86;17464;4;121;505;19
08.03.20;17:15:00;1;508;13964;0;2;1104;22028;4;1175;364;26;3;656;14091;4;712;422;24;4;931;21493;5;969;246;27;5;592;52434;4;271;252;395;621;31;6;512;40115;4;231;248;588;572;29;7;1293;32309;4;1379;482;26;8;721;31801;4;772;438;25;9;93;17457;4;131;508;19
08.03.20;17:10:00;1;1509;13921;0;2;1233;21936;4;1315;377;27;3;744;14037;4;805;422;24;4;1051;21416;5;1094;239;27;5;723;52385;4;324;335;339;643;31;6;626;40073;4;299;314;593;571;29;7;1422;32202;4;1505;483;26;8;828;31742;4;880;357;25;9;108;17449;4;147;503;20
08.03.20;17:05:00;1;1476;13797;0;2;1564;21834;4;1655;369;27;3;904;13975;4;970;432;24;4;1262;21330;5;1315;236;28;5;988;52323;4;465;434;361;698;31;6;811;40019;4;414;436;607;579;29;7;1817;32086;4;1911;483;26;8;1317;31674;4;1384;366;26;9;103;17440;4;132;382;20
08.03.20;17:00:00;1;461;13699;0;2;1726;21704;4;1825;383;28;3;986;13900;4;1051;429;24;4;1447;21225;5;1508;240;28;5;1274;52238;4;635;529;418;686;31;6;973;39949;4;500;525;602;577;29;7;818;31830;0;862;191;10;8;1312;31565;4;1377;330;20;9;113;17432;4;138;281;16
08.03.20;16:55:00;1;473;13663;0;2;1856;21561;4;1957;373;29;3;1064;13818;4;1137;437;25;4;1588;21106;5;1654;241;29;5;1479;52131;4;745;613;430;694;32;6;1111;39868;4;584;581;600;577;29;7;2162;31772;4;2275;482;27;8;1535;31427;4;1611;349;20;9;237;17417;0;259;211;13
08.03.20;16:50:00;1;518;13623;0;2;1935;21406;4;2040;387;29;3;1139;13730;4;1209;435;25;4;1718;20973;5;1789;241;29;5;1720;52006;4;879;723;430;702;32;6;1297;39773;4;631;633;602;573;29;7;2331;31593;4;2445;475;27;8;435;31183;0;455;90;5;9;581;17390;4;619;279;18
08.03.20;16:45:00;1;427;13584;0;2;2193;21245;4;2311;390;30;3;1228;13635;4;1302;438;25;4;1866;20830;5;1944;241;29;5;1991;51863;4;1041;841;427;693;32;6;1504;39665;4;760;778;604;576;30;7;2534;31401;4;2651;478;27;8;2422;31094;4;2545;465;27;9;921;17332;4;976;365;23
08.03.20;16:40:00;1;465;13548;0;2;2481;21062;4;2609;384;30;3;1366;13533;4;1447;441;25;4;2035;20675;5;2120;241;29;5;2425;51694;4;1295;1036;426;695;32;6;1831;39536;4;952;936;606;577;30;7;2846;31187;4;2990;482;27;8;2790;30890;4;2926;480;27;9;894;17255;4;946;307;19
08.03.20;16:35:00;1;470;13508;0;2;2921;20857;4;3075;394;29;3;1164;13420;4;1245;495;25;4;2322;20506;5;2419;243;28;5;3037;51491;4;1637;1307;433;703;32;6;2280;39383;4;1201;1174;608;580;30;7;3313;30952;4;3474;485;27;8;3260;30659;4;3416;478;27;9;1398;17162;4;1475;421;24
08.03.20;16:30:00;1;470;13469;0;2;1732;20616;4;1831;396;29;3;876;13321;4;953;555;25;4;1407;20314;5;1466;245;28;5;2106;51241;4;1108;895;426;684;32;6;1566;39195;4;770;770;596;562;30;7;2277;30677;4;2392;498;27;8;2273;30390;4;2388;487;27;9;1005;17046;4;1078;483;24
08.03.20;16:25:00;1;486;13430;0;2;1815;20462;4;1918;396;29;3;877;13247;4;956;582;25;4;1438;20190;5;1498;247;29;5;2167;51068;4;1146;918;434;700;33;6;1620;39064;4;841;820;596;571;30;7;2205;30473;4;2319;481;28;8;2212;30186;4;2325;486;27;9;1086;16957;4;1160;499;25
08.03.20;16:20:00;1;518;13388;0;2;1115;20311;4;1194;407;29;3;697;13173;4;761;524;25;4;902;20069;5;939;243;29;5;1473;50890;4;759;620;428;687;33;6;1142;38930;4;598;605;592;568;30;7;1098;30292;4;1165;382;22;8;1355;30007;4;1435;475;28;9;689;16870;4;749;526;25
08.03.20;16:15:00;1;483;13345;0;2;917;20215;4;989;397;30;3;557;13113;4;618;514;26;4;720;19992;5;750;237;30;5;1241;50766;4;620;507;413;654;34;6;925;38835;4;483;493;586;557;30;7;944;30154;0;1003;371;23;8;1128;29894;4;1191;462;28;9;568;16814;4;625;519;25
08.03.20;16:10:00;1;483;13304;0;2;900;20140;4;971;393;32;3;550;13067;4;612;514;26;4;698;19932;5;727;237;31;5;1222;50666;4;614;505;409;654;34;6;914;38759;4;457;465;579;551;31;7;836;30082;4;892;368;24;8;1019;29800;4;1081;459;29;9;519;16767;4;578;511;26
08.03.20;16:05:00;1;494;13264;0;2;974;20065;4;1042;379;34;3;559;13021;4;617;489;27;4;747;19875;5;778;229;32;5;1346;50563;4;675;560;407;648;35;6;1062;38682;4;544;547;571;547;31;7;1056;30000;4;1122;459;30;8;848;29717;4;911;371;24;9;411;16724;4;453;399;22
08.03.20;16:00:00;1;546;13221;0;2;3036;19984;4;3212;389;37;3;1533;12975;4;1618;412;28;4;2149;19812;5;2238;225;33;5;3761;50450;4;2039;1641;415;677;35;6;2812;38597;4;1432;1408;585;562;31;7;1884;29911;4;1983;305;20;8;2515;29634;4;2643;381;25;9;1712;16679;4;1825;512;29
08.03.20;15:55:00;1;550;13176;0;2;3515;19739;4;3708;390;38;3;1797;12851;4;1892;405;28;4;2480;19639;5;2583;223;33;5;4403;50131;4;2401;1928;422;680;35;6;3323;38361;4;1715;1669;594;565;31;7;4081;29649;4;4287;462;31;8;3229;29301;0;3387;371;24;9;2193;16540;4;2325;510;30
08.03.20;15:50:00;1;636;13128;0;2;3483;19446;4;3675;389;38;3;1904;12701;4;2007;422;29;4;2547;19431;5;2653;230;34;5;4447;49763;4;2424;1950;420;678;35;6;3355;38084;4;1734;1669;592;564;31;7;4109;29309;4;4310;459;31;8;3380;28980;0;3546;384;25;9;2217;16357;4;2352;515;30
08.03.20;15:45:00;1;526;13077;0;2;3544;19155;4;3741;389;38;3;1951;12542;4;2052;421;29;4;2600;19220;5;2708;236;34;5;4634;49391;4;2519;2033;420;683;35;6;3493;37803;4;1822;1781;593;564;31;7;4193;28967;4;4402;461;31;8;3304;28702;4;3467;369;24;9;2263;16174;4;2396;508;30
08.03.20;15:40:00;1;687;13030;0;2;3597;18860;4;3797;393;38;3;1978;12380;4;2080;425;29;4;2638;19002;5;2748;233;34;5;4859;49002;4;2665;2130;422;687;35;6;3664;37510;4;1891;1852;587;558;31;7;4321;28623;4;4537;462;31;8;3553;28363;4;3731;383;25;9;2331;15985;4;2473;511;30
08.03.20;15:35:00;1;763;12975;0;2;3627;18560;4;3825;381;37;3;2014;12215;4;2122;423;29;4;2729;18783;5;2842;231;34;5;5048;48596;4;2772;2222;413;675;35;6;3810;37204;4;1957;1913;584;558;31;7;4413;28257;4;4631;451;31;8;4365;28003;4;4572;454;30;9;2393;15788;4;2539;515;30
08.03.20;15:30:00;1;833;12908;0;2;3664;18258;4;3864;382;37;3;2058;12047;4;2164;427;29;4;2880;18556;5;3000;229;35;5;5243;48173;4;2874;2292;414;670;35;6;3950;36886;4;2067;1985;579;557;31;7;3704;27889;4;3884;377;25;8;4404;27639;4;4616;449;30;9;2011;15592;4;2133;419;25
08.03.20;15:25:00;1;484;12845;0;2;3753;17954;4;3958;381;37;3;2116;11875;4;2226;422;29;4;3039;18316;5;3165;229;35;5;5475;47736;4;3002;2407;411;660;35;6;4136;36555;4;2134;2066;576;554;31;7;4571;27519;4;4787;450;30;8;4529;27272;4;4747;452;30;9;2493;15387;4;2642;499;30
08.03.20;15:20:00;1;525;12804;0;2;3937;17640;4;4150;380;36;3;2213;11699;4;2326;423;29;4;3256;18063;5;3392;228;34;5;5891;47275;4;3246;2602;405;653;35;6;4458;36208;4;2304;2234;576;553;31;7;4785;27143;4;5011;443;30;8;4746;26901;4;4980;447;29;9;2616;15183;4;2771;500;30
08.03.20;15:15:00;1;462;12760;0;2;4009;17312;4;4217;374;36;3;2289;11515;4;2406;432;28;4;3371;17791;5;3512;226;34;5;6209;46782;4;3426;2744;408;660;35;6;4681;35835;4;2411;2331;571;552;31;7;3983;26739;4;4173;357;23;8;4959;26499;4;5197;452;29;9;2187;14961;4;2313;397;23
08.03.20;15:10:00;1;467;12722;0;2;4060;16979;4;4270;371;35;3;2335;11324;4;2452;433;28;4;3473;17511;5;3617;224;33;5;6394;46264;4;3535;2821;409;661;34;6;4837;35443;4;2528;2449;572;551;30;7;5073;26328;4;5305;447;28;8;3043;25861;0;3189;269;16;9;1655;14735;4;1754;299;17
08.03.20;15:05:00;1;472;12683;0;2;4213;16640;4;4432;373;34;3;2428;11130;4;2549;427;28;4;3658;17221;5;3810;225;33;5;6705;45732;4;3706;2966;406;660;33;6;4990;35040;4;2599;2513;574;554;30;7;5162;25906;4;5418;447;28;8;2106;25422;0;2204;176;10;9;575;14370;0;608;99;5
08.03.20;15:00:00;1;478;12642;0;2;4760;16289;4;5009;377;32;3;2658;10927;4;2793;442;27;4;4110;16917;5;4281;230;31;5;7608;45172;4;4226;3368;413;661;33;6;5626;34617;4;2893;2815;577;552;30;7;5393;25472;4;5671;459;26;8;5292;25244;4;5551;450;26;9;1899;14182;0;2013;335;18
08.03.20;14:55:00;1;498;12602;0;2;4198;15893;4;4416;371;30;3;2524;10706;4;2662;464;27;4;3756;16576;5;3913;233;30;5;6985;44538;4;3877;3107;416;691;32;6;5986;34131;4;3087;3036;604;566;29;7;4906;25019;4;5154;465;26;8;4634;24794;4;4858;459;26;9;2613;14031;4;2770;518;26
08.03.20;14:50:00;1;451;12561;0;2;2643;15547;4;2791;403;26;3;1637;10496;4;1740;514;25;4;2329;16262;5;2426;240;27;5;4616;43925;4;2529;2036;420;682;32;6;3572;33670;4;1861;1796;596;573;29;7;4017;24603;4;4213;475;25;8;3616;24409;4;3796;376;20;9;1978;13816;4;2106;426;19
08.03.20;14:45:00;1;473;12523;0;2;1770;15295;4;1875;405;25;3;1136;10342;4;1220;525;25;4;1560;16040;5;1625;238;27;5;3343;43540;4;1799;1463;426;694;32;6;2557;33369;4;1326;1297;598;574;29;7;2050;24241;4;2162;483;25;8;2062;24033;4;2164;478;25;9;897;13578;4;963;421;18